Location: Hastringsfeld
(50.9620°N, 10.4787°E)
Time: 11:41:49
(UTC+00:00)

Thor Agena Rocket - Pass Details

Date: 26 September 2023
Orbit: 757 x 806 km, 99.0° (Epoch: 28 November)

Event Time Altitude Azimuth Distance (km) Brightness Sun altitude
Rises 02:29:57 0° 14° (NNE) 3,307 7.5 -24.8°
Reaches altitude 10° 02:32:16 10° 14° (NNE) 2,380 6.6 -24.5°
Maximum altitude 02:37:32 81° 288° (WNW) 819 3.5 -23.8°
Enters shadow 02:38:37 58° 213° (SSW) 938 3.6 -23.6°
